Other Public Products
Issued by NWS Grand Forks, ND

Home | Current Version | Previous Version | Text Only | Print | Product List | Glossary Off
Versions: 1 2 3 4 5 6 7 8 9 10 11 12 13 14 15 16 17 18 19 20 21 22 23 24 25 26 27 28 29 30 31 32 33 34 35 36 37 38 39 40 41 42 43 44 45 46 47 48 49 50

000
FPUS83 KFGF 180531
OPUFGF
PRAIRIE TO PINES WEATHER ROUNDUP
NATIONAL WEATHER SERVICE EASTERN NORTH DAKOTA/GRAND FORKS ND
1100 PM CST WED DEC 17 2014

 **SATELLITE DATA USED TO AUGMENT SKY COVER AT AUTOMATED STATIONS**
 *****  WEATHER ACROSS EASTERN NORTH DAKOTA  *****

CITY           SKY/WX    TMP DP  RH WIND       PRES   REMARKS
GRAND FORKS    FAIR       8   4  83 CALM      30.32F
GRAND FORKS AF FAIR       6   5  98 SE3       30.30F
GRAND CITY NWS NOT AVBL
BUXTON           N/A     11  10  93 NE3         N/A
DEVILS LAKE    FAIR       3  -8  60 SE5       30.21F WCI  -6
FARGO          FAIR       9   5  84 NE5       30.31F WCI   1
WAHPETON ARPT  FAIR       7   3  85 CALM      30.31R
$$

 *****  WEATHER ACROSS CENTRAL AND WESTERN NORTH DAKOTA  *****

CITY           SKY/WX    TMP DP  RH WIND       PRES   REMARKS
JAMESTOWN      FAIR       4   1  88 SE5       30.23R WCI  -5
BISMARCK       CLOUDY    17  13  84 SE8       30.17F WCI   7
MINOT          FAIR       5   1  83 E3        30.14F
MINOT AFB      FAIR       4   2  94 SE6       30.15F WCI  -7
GARRISON         N/A     11   8  88 E6        30.12F WCI   1
WILLISTON      CLOUDY    20  15  81 SE9       30.06F WCI   9
DICKINSON      CLOUDY    18  15  88 SE10      30.02S WCI   6
HETTINGER      CLOUDY    18  15  88 SE12      30.04F FOG     WCI   5
$$

 *****  OTHER OBSERVATIONS NORTHEAST NORTH DAKOTA  *****

CITY           SKY/WX    TMP DP  RH WIND       PRES   REMARKS
WALHALLA         N/A      3   3 100 CALM      30.30R
LANGDON        FAIR       5   0  78 S9        30.22S WCI  -9
CAVALIER       FAIR       7   5  92 SE5       30.30F WCI  -2
GRAFTON        NOT AVBL
CANDO          FAIR       1   0  92 SE6       30.23S WCI -10
FORT TOTTEN      N/A      8   4  85 SE6       29.95S WCI  -2
ROLLA          FAIR       5   3  92 SW13      30.19S WCI -12
RUGBY          FAIR       5   1  85 SE6       30.20F WCI  -6
 ***** THE ABOVE OBSERVATIONS ARE NON NWS ARE NOT QUALITY
        CONTROLLED AND MAY MIS-REPORT RAIN FOR SNOW...
$$

 *****  OTHER OBSERVATIONS SOUTHEAST NORTH DAKOTA *****

CITY           SKY/WX    TMP DP  RH WIND       PRES   REMARKS
COOPERSTOWN    NOT AVBL
VALLEY CITY    FAIR       7   7 100 CALM      30.25S
OAKES            N/A      5   3  92 E5        30.27R WCI  -4
GWINNER        CLEAR     10   9  92 MISG      30.29R
SHEYENNE NWR     N/A      2  -3  81 CALM      29.95S
BUFFALO        NOT AVBL
WYNDMERE         N/A      9   7  92 SE2         N/A
 ***** THE ABOVE OBSERVATIONS ARE NON NWS ARE NOT QUALITY
       CONTROLLED AND MAY MIS-REPORT RAIN FOR SNOW...
$$

  *****  WEATHER ACROSS NORTHERN MINNESOTA  *****

CITY           SKY/WX    TMP DP  RH WIND       PRES   REMARKS
FLAG ISLAND    FAIR      10   7  85 CALM      30.32R
WARROAD        FAIR       3   0  85 CALM      30.32R
ROSEAU         FAIR       7   1  78 CALM      30.31S
HALLOCK        FAIR       5   1  85 CALM      30.32S
THF RVR FALLS  FAIR      12   9  85 E6        30.30R WCI   3
HALSTAD          N/A      6   1  82 NE3         N/A
FOSSTON        FAIR       3   1  92 CALM      30.29S
BAUDETTE       FAIR       5   0  79 CALM      30.31R
WASKISH        FAIR       3   1  92 CALM      30.31S
CROOKSTON      FAIR       9   7  92 CALM      30.33S
$$
  *****  WEATHER ACROSS CENTRAL AND WEST MINNESOTA  *****

CITY           SKY/WX    TMP DP  RH WIND       PRES   REMARKS
BEMIDJI        FAIR       4   1  86 CALM      30.29S
PARK RAPIDS    FAIR       9   4  80 CALM      30.27F
WADENA         FAIR       3   1  92 CALM      30.27S
DETROIT LAKES  FAIR      10   9  92 CALM      30.27F
MOORHEAD       FAIR      10  10 100 CALM      30.32R
FERGUS FALLS   FAIR       9   5  85 E3        30.33R
ELBOW LAKE     FAIR       7   4  90 CALM      30.29R
MORRIS MN      FAIR       7   3  85 NE3       30.29R
STAPLES        FAIR       7   3  85 CALM      30.29S
WHEATON        FAIR       3   1  92 CALM      30.32R
$$
  *****  WEATHER ELSEWHERE ACROSS MINNESOTA  *****

CITY           SKY/WX    TMP DP  RH WIND       PRES   REMARKS
DULUTH         CLOUDY    16  11  80 N5        30.26S WCI   9
INTRNTL FALLS  FAIR       2  -2  83 CALM      30.32R
ELY            FAIR       0  -6  78 CALM      30.29R
CLOQUET        CLOUDY    12  10  92 W5        30.29R WCI   4
BRAINERD       FAIR       4   2  91 CALM      30.31R
HIBBING        FAIR       4  -1  80 CALM      30.29R
ALEXANDRIA     FAIR      11   7  84 E3        30.27F
SAINT CLOUD    FAIR      12   7  80 NE3       30.30F
MINNEAPOLIS    FAIR      15   9  76 NE3       30.33S
$$

  *****  WEATHER ACROSS SOUTH DAKOTA  *****

CITY           SKY/WX    TMP DP  RH WIND       PRES   REMARKS
SIOUX FALLS    MOCLDY     9   5  84 CALM      30.26S
BROOKINGS      NOT AVBL
WATERTOWN      FAIR       5   2  87 CALM      30.23R
HURON          CLOUDY    12   9  87 SE6       30.25F WCI   3
SISSETON         N/A     -1  -3  91 CALM      30.28R
ABERDEEN       CLOUDY    13   9  84 SE3       30.26S
MITCHELL       CLOUDY    14  11  87 SE6       30.27S WCI   5
PIERRE         CLOUDY    17  15  92 SE13      30.16S WCI   4
MOBRIDGE       CLOUDY    18  13  80 SE10      30.14S WCI   6
RAPID CITY     CLOUDY    22  20  92 SE6       30.00S WCI  14
$$

  *****  SOME WEATHER IN NEARBY STATES *****

CITY           SKY/WX    TMP DP  RH WIND       PRES   REMARKS
GLASGOW MT     CLOUDY    24  19  81 E10       29.97S WCI  14
GREAT FALLS MT CLEAR     29  24  82 S12       29.88R WCI  19
CHEYENNE WY    PTCLDY    24  15  68 W6        29.96R WCI  17
SCOTTSBLUFF NE FOG       18  17  96 CALM      30.02R VSB 1/4
OMAHA NE       CLOUDY    28  19  69 E5        30.28S WCI  23
DES MOINES IA  MOCLDY    23  16  74 NE3       30.29F
DAVENPORT IA   FAIR      17  12  80 N3        30.30F
CHICAGO IL     FLURRIES  24  15  68 NW9       30.28R WCI  14
EAU CLAIRE WI  CLOUDY    19  12  74 W5        30.31R WCI  12
LA CROSSE WI   FAIR      18  12  77 N6        30.32R WCI  10
$$

  *****  SOME NATIONAL WEATHER *****

CITY           SKY/WX    TMP DP  RH WIND       PRES   REMARKS
LA GUARDIA NY  MOCLDY    42  27  55 W15G23    29.88F
RALEIGH NC     MOCLDY    39  34  82 CALM      30.08S
ATLANTA GA     MOCLDY    39  34  82 NW8       30.14S
NEW ORLEANS LA MOCLDY    51  42  71 CALM      30.19F
OKLAHOMA CITY  DRIZZLE   37  36  93 S8        30.13R FOG
ALBUQUERQUE NM MOCLDY    36  33  89 S6        30.10R
SALT LAKE CITY MOCLDY    34  31  88 CALM      30.06R
LOS ANGELES CA PTCLDY    59  43  55 CALM      30.10R
BOISE ID       CLOUDY    39  33  79 SW5       30.01S
SEATTLE WA     CLOUDY    46  44  93 CALM      29.91S
$$

*** WEATHER ACROSS MANITOBA...SASKATCHEWAN AND ONTARIO ***
                ***ONTARIO***

CITY           SKY/WX    TMP DP  RH WIND       PRES   REMARKS
GERALDTON      CLEAR     -8 -11  84 NW3       30.30S
THUNDER BAY    CLEAR     -2  -4  92 SW5       30.37  WCI -12
SIOUX LOOKOUT  CLEAR     -9 -13  84 CALM      30.32
TORONTO        MOCLDY    32  27  80 W15       29.97S WCI  22
BIG TROUT LK   CLEAR     -2  -4  92 W7        30.26F WCI -16
PICKLE LAKE    NOT AVBL
DRYDEN         CLEAR     -2  -6  84 NE2       30.31S
KENORA         CLEAR      7  -2  66 SE5       30.30  WCI  -2
$$
                *** MANITOBA***

CITY           SKY/WX    TMP DP  RH WIND       PRES   REMARKS
BRANDON        PTCLDY    -4  -8  84 E2        30.22S
DAUPHIN        CLEAR      3   1  92 W8        30.20F WCI -10
ISLAND LAKE    CLEAR      0  -8  71 S2        30.26S
PILOT MOUND      N/A      0  -4  85 S7          N/A  WCI -13
THE PAS        CLEAR      3   0  85 SE5       30.10F WCI  -6
THOMPSON       FLURRIES   9   5  85 SW10      30.12R WCI  -6
WINNIPEG       CLEAR      7   3  85 S3        30.33R
LYNN LAKE      FLURRIES  14  12  92 SW9       30.00S WCI   2
CHURCHILL      CLEAR      3   1  92 SW10      30.01S WCI -12
GILLAM         FLURRIES   9   5  85 SW12G20   30.13  WCI  -6
$$
                ***SASKATCHEWAN***

CITY           SKY/WX    TMP DP  RH WIND       PRES   REMARKS
ESTEVAN        FLURRIES  16  12  86 S10G18    30.08F WCI   3
KINDERSLEY     PTCLDY    14  10  85 S7        29.87F WCI   4
LLOYDMINSTER   FOG       18  16  93 S8        29.87F VSB 1   WCI   7
PRINCE ALBERT  FLURRIES  18  14  86 S10       30.01S WCI   6
REGINA         FLURRIES  18  16  93 S17       30.03F WCI   2



USA.gov is the U.S. government's official web portal to all federal, state and local government web resources and services.